(94273) = 1999 XP185 = 2001 DR29

Discovered at Socorro on 2001-02-17 by LINEAR.

Orbit

Orbit type: Main Belt

Note: WebGL enabled browser required.

epoch2023-02-25.0
epoch JD2460000.5
perihelion date2021-01-15.18787
perihelion JD2459229.68787
argument of perihelion (°)38.17323
ascending node (°)2.44464
inclination (°)9.84546
eccentricity0.0577503
perihelion distance (AU)2.8959449
Tisserand w.r.t. Jupiter3.2
ΔV w.r.t. Earth (km/sec)11.0
semimajor axis (AU)3.0734368
mean anomaly (°)140.99897
mean daily motion (°/day)0.18292260
aphelion distance (AU)3.251
period (years)5.39
P-vector [x]0.75945657
P-vector [y]0.54691045
P-vector [z]0.35229913
Q-vector [x]-0.65051712
Q-vector [y]0.63234788
Q-vector [z]0.42067047
absolute magnitude14.57
phase slope0.15
uncertainty0
referenceMPO 745323
observations used1173
oppositions19
arc length (days)8949
first opposition used1998
last opposition used2023
residual rms (arc-secs)0.71
perturbers coarse indicatorM-v
perturbers precise indicator003Ek
first observation date used1998-11-11.0
last observation date used2023-05-13.0
computer nameMPCLINUX
JD of orbit computation2456937.320229
perihelion JD uncertainty (days)3.7996E-04
argument of perihelion uncertainty (°)7.0336E-05
ascending node uncertainty (°)2.3329E-05
inclination uncertainty (°)8.2459E-06
eccentricity uncertainty 8.3477E-08
perihelion distance uncertainty (AU)2.7743E-07
Minimum Orbit Intersection Distances (in AU)
for orbit epoch: 2460000.5, reference: E2023-JF5
Mercury2.5707
Venus2.18117
Earth1.90725
Mars1.41517
Jupiter2.01532
Saturn6.1428
Uranus15.2563
Neptune26.9507

Observations

1202 total observations over interval: 1998 11 11.77210 – 2023 05 13.624474
These data are available for download (format description).

Date (UT) J2000 RA J2000 Dec Magn Location Ref
1998 11 11.77210 22 25 38.35 -12 02 25.5 20.8 V 910 – Caussols-ODAS MPS 28036
1998 11 11.79510 22 25 38.85 -12 02 18.2 20.7 V 910 – Caussols-ODAS MPS 28036
1998 11 11.81826 22 25 39.36 -12 02 09.8 21.0 V 910 – Caussols-ODAS MPS 28036
1999 11 01.35318 05 08 39.87 +35 16 23.1 20.1   704 – Lincoln Laboratory ETS, New Mexico MPS 27762
1999 11 01.36990 05 08 39.36 +35 16 26.5 19.9   704 – Lincoln Laboratory ETS, New Mexico MPS 27762
1999 11 01.38734 05 08 38.91 +35 16 31.7 19.9   704 – Lincoln Laboratory ETS, New Mexico MPS 27762
1999 12 12.27402 04 32 45.40 +36 08 54.5 17.6   704 – Lincoln Laboratory ETS, New Mexico MPS 9110
1999 12 12.29524 04 32 44.04 +36 08 52.0 17.9   704 – Lincoln Laboratory ETS, New Mexico MPS 9110
1999 12 12.32017 04 32 42.59 +36 08 49.0 17.4   704 – Lincoln Laboratory ETS, New Mexico MPS 9110
1999 12 12.33799 04 32 41.47 +36 08 47.1 17.3   704 – Lincoln Laboratory ETS, New Mexico MPS 9110
1999 12 15.16863 04 29 54.30 +36 03 05.3 18.9   704 – Lincoln Laboratory ETS, New Mexico MPS 9110
1999 12 15.18768 04 29 53.16 +36 03 04.2 18.8   704 – Lincoln Laboratory ETS, New Mexico MPS 9111
1999 12 15.20654 04 29 51.99 +36 03 01.4 18.9   704 – Lincoln Laboratory ETS, New Mexico MPS 9111
1999 12 15.22501 04 29 50.90 +36 02 59.6 18.4   704 – Lincoln Laboratory ETS, New Mexico MPS 9111
2001 02 01.35110 11 07 55.54 +12 53 58.5 19.3   704 – Lincoln Laboratory ETS, New Mexico MPS 28036
2001 02 01.36596 11 07 54.94 +12 54 03.1 18.9   704 – Lincoln Laboratory ETS, New Mexico MPS 28036
2001 02 01.38082 11 07 54.41 +12 54 05.5 18.9   704 – Lincoln Laboratory ETS, New Mexico MPS 28036
2001 02 01.39569 11 07 53.86 +12 54 08.4 19.1   704 – Lincoln Laboratory ETS, New Mexico MPS 28036
2001 02 02.33560 11 07 20.95 +12 56 35.9 18.6   704 – Lincoln Laboratory ETS, New Mexico MPS 28036
2001 02 02.35051 11 07 20.50 +12 56 38.8 18.7   704 – Lincoln Laboratory ETS, New Mexico MPS 28036
2001 02 02.38033 11 07 19.45 +12 56 45.1 18.7   704 – Lincoln Laboratory ETS, New Mexico MPS 28036
2001 02 17.30900 10 56 40.96 +13 40 24.5 18.7   704 – Lincoln Laboratory ETS, New Mexico MPS 27030
2001 02 17.32314 10 56 40.27 +13 40 26.4 19.1   704 – Lincoln Laboratory ETS, New Mexico MPS 27030
2001 02 17.33727 10 56 39.55 +13 40 29.8 19.1   704 – Lincoln Laboratory ETS, New Mexico MPS 27030
2001 02 17.35139 10 56 38.82 +13 40 32.0 18.9   704 – Lincoln Laboratory ETS, New Mexico MPS 27030
2001 02 17.36550 10 56 38.12 +13 40 35.0 19.1   704 – Lincoln Laboratory ETS, New Mexico MPS 27030
2001 02 20.36178 10 54 10.15 +13 49 29.0 18.7   704 – Lincoln Laboratory ETS, New Mexico MPS 27030
2001 02 20.37599 10 54 09.51 +13 49 31.5 18.7   704 – Lincoln Laboratory ETS, New Mexico MPS 27030
2001 02 20.40463 10 54 07.96 +13 49 35.8 18.9   704 – Lincoln Laboratory ETS, New Mexico MPS 27030
2001 02 21.31790 10 53 22.28 +13 52 18.1 19.2   704 – Lincoln Laboratory ETS, New Mexico MPS 27030
2001 02 21.33199 10 53 21.47 +13 52 19.5 19.4   704 – Lincoln Laboratory ETS, New Mexico MPS 27030
2001 02 21.34615 10 53 20.79 +13 52 22.1 18.8   704 – Lincoln Laboratory ETS, New Mexico MPS 27030
2001 02 21.36033 10 53 20.02 +13 52 24.8 19.0   704 – Lincoln Laboratory ETS, New Mexico MPS 27030
2001 02 21.37441 10 53 19.25 +13 52 27.3 19.3   704 – Lincoln Laboratory ETS, New Mexico MPS 27030
2001 03 03.24576 10 44 51.62 +14 18 47.9 18.2   704 – Lincoln Laboratory ETS, New Mexico MPS 28036
2001 03 03.25870 10 44 51.02 +14 18 49.6 18.3   704 – Lincoln Laboratory ETS, New Mexico MPS 28036
2001 03 03.28510 10 44 49.63 +14 18 53.8 18.9   704 – Lincoln Laboratory ETS, New Mexico MPS 28036
2001 03 03.29807 10 44 48.88 +14 18 54.4 18.1   704 – Lincoln Laboratory ETS, New Mexico MPS 28036
2001 03 14.17112 10 35 49.47 +14 39 21.2 18.5 R 699 – Lowell Observatory-LONEOS MPS 28036
2001 03 14.20396 10 35 47.79 +14 39 24.8   699 – Lowell Observatory-LONEOS MPS 28036
2001 03 14.23697 10 35 46.27 +14 39 27.4   699 – Lowell Observatory-LONEOS MPS 28036
2001 03 14.26972 10 35 44.61 +14 39 30.1   699 – Lowell Observatory-LONEOS MPS 28036
2001 03 29.12694 10 25 44.60 +14 47 01.9 19.4 R 699 – Lowell Observatory-LONEOS MPS 28036
2001 03 29.15339 10 25 43.79 +14 47 00.9   699 – Lowell Observatory-LONEOS MPS 28036
2001 03 29.17990 10 25 42.87 +14 47 03.0   699 – Lowell Observatory-LONEOS MPS 28036
2001 03 29.20652 10 25 41.95 +14 47 00.6   699 – Lowell Observatory-LONEOS MPS 28036
2002 05 10.25948 14 53 36.26 -27 22 20.8 19.2   644 – Palomar Mountain/NEAT MPS 54606
2002 05 10.28045 14 53 35.10 -27 22 18.4 19.0   644 – Palomar Mountain/NEAT MPS 54606
2002 05 10.30117 14 53 33.95 -27 22 16.3 18.9   644 – Palomar Mountain/NEAT MPS 54606
2004 09 10.34861 02 37 37.88 +20 54 40.7 19.5   704 – Lincoln Laboratory ETS, New Mexico MPS 112700
2004 09 10.36009 02 37 37.80 +20 54 44.3 19.4   704 – Lincoln Laboratory ETS, New Mexico MPS 112700
2004 09 10.37287 02 37 37.66 +20 54 46.5 19.7   704 – Lincoln Laboratory ETS, New Mexico MPS 112700
2004 09 10.38437 02 37 37.64 +20 54 49.6 20.1   704 – Lincoln Laboratory ETS, New Mexico MPS 112700
2004 09 10.39587 02 37 37.56 +20 54 53.1 19.9   704 – Lincoln Laboratory ETS, New Mexico MPS 112700
2004 09 13.29410 02 37 17.00 +21 06 04.3 19.2   704 – Lincoln Laboratory ETS, New Mexico MPS 112700
2004 09 13.30548 02 37 16.91 +21 06 07.9 20.0   704 – Lincoln Laboratory ETS, New Mexico MPS 112700
2004 09 13.31686 02 37 16.73 +21 06 09.9 20.1   704 – Lincoln Laboratory ETS, New Mexico MPS 112700
2004 09 13.32825 02 37 16.71 +21 06 13.7 19.9   704 – Lincoln Laboratory ETS, New Mexico MPS 112700
2004 09 13.33963 02 37 16.46 +21 06 16.5 19.7   704 – Lincoln Laboratory ETS, New Mexico MPS 112700
2004 09 16.33668 02 36 41.45 +21 16 59.0 18.9 R 699 – Lowell Observatory-LONEOS MPS 115215
2004 09 16.35627 02 36 41.19 +21 17 03.3   699 – Lowell Observatory-LONEOS MPS 115215
2004 09 16.37586 02 36 40.81 +21 17 06.6   699 – Lowell Observatory-LONEOS MPS 115215
2004 09 16.39543 02 36 40.55 +21 17 10.0   699 – Lowell Observatory-LONEOS MPS 115215
2004 09 18.36755 02 36 09.81 +21 23 41.2 19.4   704 – Lincoln Laboratory ETS, New Mexico MPS 114228
2004 09 18.37971 02 36 09.61 +21 23 43.7 19.3   704 – Lincoln Laboratory ETS, New Mexico MPS 114228
2004 09 18.39193 02 36 09.36 +21 23 46.2 19.7   704 – Lincoln Laboratory ETS, New Mexico MPS 114228
2004 09 18.40409 02 36 09.11 +21 23 48.5 19.3   704 – Lincoln Laboratory ETS, New Mexico MPS 114228
2004 09 18.41678 02 36 08.88 +21 23 51.2 19.8   704 – Lincoln Laboratory ETS, New Mexico MPS 114228
2004 09 21.417837 02 35 10.619 +21 32 56.97 19.26 V 645 – Apache Point-Sloan Digital Sky Survey MPS 389760
2004 09 21.421309 02 35 10.535 +21 32 57.59 20.00   645 – Apache Point-Sloan Digital Sky Survey MPS 389760
2004 09 25.37450 02 33 33.45 +21 43 24.6 18.6 R 699 – Lowell Observatory-LONEOS MPS 116502
2004 09 25.38998 02 33 32.97 +21 43 26.0   699 – Lowell Observatory-LONEOS MPS 116502
2004 09 25.40547 02 33 32.52 +21 43 28.8   699 – Lowell Observatory-LONEOS MPS 116502
2004 09 25.42094 02 33 32.13 +21 43 31.2   699 – Lowell Observatory-LONEOS MPS 116503
2004 10 10.26265 02 24 17.05 +22 05 28.6 19.7   704 – Lincoln Laboratory ETS, New Mexico MPS 116503
2004 10 10.27460 02 24 16.52 +22 05 27.8 19.8   704 – Lincoln Laboratory ETS, New Mexico MPS 116503
2004 10 10.28636 02 24 15.93 +22 05 28.9 19.5   704 – Lincoln Laboratory ETS, New Mexico MPS 116503
2004 10 10.29825 02 24 15.36 +22 05 29.6 19.4   704 – Lincoln Laboratory ETS, New Mexico MPS 116503
2004 10 12.32048 02 22 39.81 +22 06 12.6 18.5 R 699 – Lowell Observatory-LONEOS MPS 116503
2004 10 12.32700 02 22 39.44 +22 06 13.5   699 – Lowell Observatory-LONEOS MPS 116503
2004 10 12.33351 02 22 39.14 +22 06 13.8   699 – Lowell Observatory-LONEOS MPS 116503
2004 10 12.34002 02 22 38.79 +22 06 13.1   699 – Lowell Observatory-LONEOS MPS 116503
2004 10 18.24954 02 17 39.85 +22 05 16.9 18.6   704 – Lincoln Laboratory ETS, New Mexico MPS 117529
2004 10 18.25384 02 17 39.55 +22 05 16.8 19.0   704 – Lincoln Laboratory ETS, New Mexico MPS 117529
2004 10 18.26081 02 17 39.21 +22 05 17.0 18.7   704 – Lincoln Laboratory ETS, New Mexico MPS 117529
2004 10 18.26583 02 17 38.96 +22 05 16.7 19.2   704 – Lincoln Laboratory ETS, New Mexico MPS 117529
